Theta_e
329 329 327 326 324 325 324 324 321 313 314 318 321 329 336 342 346 345 346 343 340 339 339 341 343 346 348 350 351 351 352 354 354 354 354 356 359 361
329 328 327 324 323 323 321 320 319 318 312 319 321 326 330 335 343 344 343 342 340 338 337 337 339 342 344 345 347 347 348 349 350 350 350 350 350 352
329 327 327 324 321 322 320 318 317 316 315 318 321 325 330 332 336 342 343 341 343 339 337 335 335 338 340 341 343 343 344 345 345 346 346 346 346 346
326 325 325 327 322 321 319 317 316 317 317 312 317 320 324 330 334 335 338 342 341 340 338 335 333 333 335 336 337 338 338 339 340 340 341 342 343 343
326 326 325 323 320 320 320 318 317 319 316 315 314 319 322 325 330 335 335 337 341 341 335 334 334 332 332 332 332 331 331 331 332 332 334 336 338 340
329 327 325 324 321 321 319 318 317 314 314 312 313 315 318 321 325 328 331 336 336 341 339 337 336 335 333 330 330 330 327 325 325 326 327 328 331 333
327 327 326 327 330 324 320 320 316 315 312 312 312 315 316 316 318 323 327 333 338 339 335 334 338 339 337 333 335 334 328 325 323 323 323 322 323 325
323 324 325 330 327 328 327 328 325 317 313 314 314 314 316 318 320 319 323 327 328 341 339 338 342 339 339 337 335 333 328 326 324 322 320 319 319 320
323 323 323 327 326 322 323 325 325 324 323 318 316 317 317 319 320 320 321 324 329 334 339 334 339 339 342 343 332 329 327 325 324 322 320 318 317 317
323 324 323 322 322 321 319 317 318 318 319 320 319 319 320 320 320 321 322 325 332 335 339 330 338 338 343 345 334 330 327 325 323 321 319 317 315 313
322 323 323 320 318 316 313 313 314 317 320 320 319 320 320 321 321 320 320 322 323 330 334 334 334 336 339 342 342 331 326 323 321 319 319 317 313 311
320 321 319 316 313 311 312 313 314 314 315 317 317 319 321 320 323 321 320 318 325 325 333 333 332 333 328 336 340 331 328 321 318 316 317 315 310 321
316 316 315 310 307 308 309 313 313 313 315 315 316 317 319 319 320 322 322 322 324 330 332 337 333 330 329 329 332 329 329 322 324 319 313 311 309 325
312 316 309 306 306 307 308 309 310 313 315 314 315 315 316 316 317 321 324 323 327 333 335 339 334 333 329 326 329 334 332 329 330 326 324 314 309 312
313 313 307 305 306 308 310 311 311 312 311 312 312 314 316 318 318 318 330 325 328 335 338 336 335 333 332 328 327 331 334 331 333 330 329 323 321 320
308 306 311 310 308 309 309 311 312 311 310 309 311 314 314 317 317 317 316 318 331 332 336 336 335 335 330 330 329 328 333 333 334 333 330 327 326 328
300 308 313 309 305 304 306 309 309 309 308 308 309 310 311 313 316 317 316 316 315 322 328 331 332 328 325 328 326 328 331 334 337 335 331 328 328 330
304 304 303 303 302 303 303 305 305 306 306 308 309 309 308 310 313 316 316 315 314 315 316 321 328 327 324 321 319 317 328 332 337 337 335 330 329 331
303 300 299 299 300 301 299 301 300 301 304 307 308 307 306 308 309 314 315 314 313 314 315 316 319 329 324 319 319 313 315 331 334 336 334 332 329 331
298 296 295 294 296 296 296 296 298 300 301 302 306 306 307 305 307 310 312 312 313 313 314 316 316 314 316 314 314 317 307 318 323 332 331 328 325 319
295 294 292 291 291 293 295 296 297 298 301 301 302 302 303 306 304 306 309 306 307 313 313 314 316 317 318 317 314 315 319 312 311 319 327 328 326 326
297 294 292 291 292 292 292 294 296 296 298 298 298 299 299 303 305 304 304 305 304 306 312 317 319 318 316 314 312 314 317 320 318 314 313 313 318 318
299 298 297 294 293 292 290 289 291 293 294 294 294 296 297 298 301 303 303 304 303 304 306 314 317 317 316 314 312 314 314 317 317 316 317 312 314 312
Wind_Speed
2 1 0 1 3 3 2 2 3 5 9 6 8 8 9 8 10 9 12 16 16 25 20 22 25 25 26 25 24 22 21 20 20 19 18 17 18 18
2 2 2 1 2 2 2 2 1 4 7 8 12 15 12 11 10 12 12 20 18 22 18 17 18 23 24 23 23 22 22 22 21 20 19 18 16 15
4 4 4 4 1 1 1 1 3 3 6 10 11 14 14 12 12 9 10 9 9 15 12 15 18 23 24 24 23 23 23 22 22 21 19 18 17 17
5 4 6 4 3 3 3 5 4 4 5 13 12 11 14 12 14 11 11 10 10 15 11 9 13 19 22 22 22 23 22 21 21 20 18 18 18 18
6 6 7 7 6 4 5 5 4 4 6 8 12 11 11 11 10 11 9 11 9 16 20 20 19 22 23 23 23 22 20 20 19 19 18 19 18 16
7 6 7 7 7 7 6 7 5 5 6 7 9 11 10 12 9 11 10 7 11 9 17 16 24 27 24 24 22 21 20 18 18 19 17 16 17 16
7 6 7 8 11 8 4 8 7 6 5 7 10 11 11 13 11 9 12 10 11 9 9 12 9 9 11 18 19 22 19 19 19 18 17 16 16 15
6 6 6 9 9 12 15 17 14 8 7 7 12 13 17 13 12 10 11 11 9 8 9 10 7 8 8 9 18 18 19 18 19 18 17 16 15 15
6 6 6 5 8 7 10 14 13 13 14 10 15 16 17 16 16 15 13 12 12 9 10 12 6 10 8 8 16 20 18 19 19 18 17 17 16 15
7 8 7 7 6 5 6 6 6 7 11 10 13 17 18 20 18 16 15 13 12 8 8 10 7 11 8 8 15 18 19 20 20 19 18 17 16 14
5 7 7 4 2 5 3 5 6 9 9 19 24 27 30 30 28 13 13 13 11 8 6 8 4 6 6 8 5 16 20 19 19 18 18 16 13 12
5 6 5 6 3 1 2 5 7 9 13 16 17 20 23 20 21 17 12 12 8 4 7 9 5 5 2 3 5 4 4 7 11 15 14 14 13 6
4 6 4 3 6 8 6 4 7 11 15 10 14 14 17 14 12 9 13 12 11 10 4 9 5 4 4 2 3 3 5 4 5 6 9 11 14 10
5 5 3 4 8 6 4 10 12 12 8 9 11 14 16 15 15 12 13 15 13 13 5 7 6 8 5 3 3 3 3 4 5 5 5 5 8 9
3 4 7 7 5 4 8 10 10 7 8 9 10 12 14 14 15 15 4 14 15 14 8 6 4 4 4 5 5 4 5 5 6 6 7 7 6 4
6 6 6 5 5 3 3 6 5 6 8 8 9 11 12 13 14 13 9 9 9 9 10 7 6 5 4 4 4 4 4 6 7 8 7 6 6 6
8 3 5 3 3 4 5 6 6 7 7 9 8 10 11 13 12 13 12 9 8 5 2 3 6 10 7 4 2 4 5 3 7 6 6 6 6 8
2 4 3 3 3 5 5 6 5 9 7 8 8 9 10 11 12 11 12 10 9 10 9 5 6 4 3 8 16 4 2 4 7 11 7 7 7 7
5 4 3 4 5 5 6 6 6 6 7 7 7 9 9 9 14 11 12 11 11 12 9 8 4 7 6 3 2 14 2 2 6 8 8 8 6 8
4 4 4 4 3 3 4 4 6 6 7 8 7 7 8 9 10 10 11 12 8 9 11 12 10 10 4 4 5 3 13 4 3 6 5 3 4 11
4 4 3 2 2 3 3 4 5 7 7 7 7 8 8 6 9 10 10 14 12 8 8 11 12 19 9 3 7 5 9 12 11 2 4 6 6 3
3 3 3 3 2 2 4 4 4 6 8 8 8 7 7 7 8 8 9 9 9 8 8 5 8 7 7 10 8 7 7 6 10 19 19 13 0 5
4 2 1 2 1 3 4 5 5 5 7 8 7 8 8 7 6 6 7 8 8 8 7 6 5 3 4 6 5 5 8 8 5 10 11 19 22 22
Wind_Direction
155 155 206 334 359 12 18 7 350 321 313 316 309 299 284 271 240 226 230 215 236 256 235 222 212 212 216 218 218 220 223 227 227 228 231 229 232 234
195 225 225 163 46 12 356 14 328 304 297 319 307 301 277 274 249 241 227 228 220 244 224 224 226 222 216 216 213 214 219 222 226 226 228 227 227 226
213 216 213 179 220 261 262 264 260 251 294 308 300 305 297 272 268 240 240 228 229 221 210 216 222 226 222 215 213 212 218 221 224 227 227 228 228 228
262 242 222 196 218 227 236 266 254 260 283 305 304 308 301 292 276 246 235 229 225 222 200 214 220 232 232 217 212 210 214 217 220 223 220 223 226 227
257 221 212 203 225 225 233 250 246 256 265 283 299 300 295 295 297 265 235 236 230 221 209 210 239 234 230 225 212 209 208 210 214 219 220 223 228 221
249 226 217 214 219 225 231 249 249 253 263 281 297 299 297 298 295 289 269 229 235 211 222 218 225 228 222 224 215 207 209 209 213 219 219 216 219 221
259 253 236 236 231 215 220 258 237 254 268 285 303 300 299 304 293 293 290 256 241 213 199 222 227 222 216 219 219 211 208 208 210 214 215 214 215 217
274 270 254 261 270 253 255 251 242 252 264 286 296 294 290 286 280 276 276 275 251 220 219 231 193 206 210 204 208 200 199 204 210 208 210 210 211 211
262 267 275 257 261 268 266 262 263 262 262 284 287 292 294 287 282 270 258 260 252 247 209 231 198 224 204 208 198 198 197 203 206 203 203 204 206 205
249 263 253 264 264 292 301 308 288 272 276 277 286 287 283 285 267 257 254 255 267 254 219 236 204 223 209 211 192 198 201 201 204 205 202 201 202 199
306 295 273 305 42 30 338 300 284 286 299 295 292 294 290 289 263 238 232 235 240 238 213 223 214 202 193 214 199 201 200 201 199 202 201 196 191 188
305 308 57 96 94 176 294 284 300 305 312 313 317 314 314 315 305 206 218 236 230 235 210 198 200 146 207 210 195 185 188 214 216 189 185 179 166 172
328 316 70 96 83 42 344 317 301 300 300 324 319 317 323 331 338 225 211 221 232 220 221 173 178 174 169 177 169 184 172 150 170 168 172 178 175 185
295 300 118 112 76 27 356 325 324 321 317 322 325 326 324 338 336 316 216 215 227 252 225 187 188 190 175 161 174 134 161 161 172 164 176 164 179 206
329 351 164 109 97 37 352 343 346 340 328 327 323 325 324 330 331 346 278 211 221 236 237 195 163 168 152 184 177 166 147 181 180 172 181 185 175 177
349 314 197 142 112 85 5 351 340 338 344 323 318 321 316 331 351 354 349 359 206 218 227 205 183 142 178 189 175 191 147 165 173 184 176 188 182 194
325 343 78 33 5 21 6 347 341 337 337 337 333 333 336 333 346 353 2 8 22 339 201 185 91 92 70 50 213 191 186 156 182 176 173 184 195 199
108 58 51 31 25 19 354 346 344 345 334 335 339 342 341 332 343 354 359 9 10 17 26 338 143 127 115 69 50 3 233 202 189 191 185 187 192 196
72 52 48 41 24 16 358 346 348 347 331 335 348 352 341 339 354 358 354 2 11 25 15 7 349 172 161 123 82 38 292 264 196 198 180 183 190 193
65 53 49 26 12 1 346 331 326 334 353 350 348 351 356 352 2 359 359 355 356 11 16 29 20 23 75 107 111 34 30 25 295 189 179 150 88 105
71 60 54 37 341 331 323 320 324 337 346 0 1 0 356 10 1 360 357 360 358 349 17 31 8 22 25 74 77 57 49 22 19 30 150 154 137 109
132 154 188 210 244 280 331 330 340 354 6 359 351 359 358 358 8 10 358 353 0 356 357 8 22 26 21 47 48 45 53 41 31 36 44 69 304 128
120 129 184 201 288 27 36 15 2 9 3 355 352 345 352 359 355 2 353 360 4 0 354 3 6 10 33 47 32 40 37 49 39 43 42 28 59 73